Tracking 19562 objects as of 22-Mar-2019
HD Live streaming from Space Station
objects crossing your sky now

FENGYUN 1C DEB

Track FENGYUN 1C DEB now!
10-day predictions


NORAD ID: 31683
Int'l Code: 1999-025CCR
Perigee: 705.4 km
Apogee: 811.1 km
Inclination: 98.7 °
Period: 99.8 minutes
Semi major axis: 7129 km
RCS: 0.0138 m2 (small)
Launch date: May 10, 1999
Source: People's Republic of China (PRC)
Launch site: Taiyaun Space Center, China (TSC)

Note: This is SATELLITE DEBRIS
aabbcc
Your satellite tracking list
Your tracking list is empty




NASA's NSSDC Master Catalog

Two Line Element Set (TLE):
1 31683U 99025CCR 19076.27485864 +.00001056 +00000-0 +32410-3 0  9998
2 31683 098.7484 099.2199 0074128 169.1435 191.1375 14.42245706302358
Source of the keplerian elements: AFSPC